GW3329 Weather Reports


time (UTC)temp
C
wind
direction
speed
KPH
gust
KPH
rain 1hr
cm
rain 24hr
cm
rain mn
cm
humidity
%
barometer
mb
20260831063837 19 171 0.0 1.6 0.00 0.00 0.00 84 1015.8
20260831063332 19 274 3.2 3.2 0.00 0.00 0.00 83 1016.1
20260831062827 19 188 0.0 0.0 0.00 0.00 0.00 84 1016.0
20260831062322 18 151 0.0 0.0 0.00 0.00 0.00 85 1015.9
20260831061820 18 147 0.0 0.0 0.00 0.00 0.00 85 1015.8
20260831061314 18 148 0.0 0.0 0.00 0.00 0.00 85 1016.2
20260831060810 18 148 0.0 0.0 0.00 0.00 0.00 85 1016.1
20260831060305 18 131 0.0 0.0 0.00 0.00 0.00 85 1015.9
20260831055804 18 142 0.0 0.0 0.00 0.00 0.00 84 1015.8
20260831055259 18 158 0.0 0.0 0.00 0.00 0.00 85 1016.0
20260831054754 18 157 0.0 0.0 0.00 0.00 0.00 85 1016.0
20260831054249 18 158 0.0 0.0 0.00 0.00 0.00 85 1016.2
20260831053748 18 159 0.0 0.0 0.00 0.00 0.00 85 1016.1
20260831053247 18 163 0.0 0.0 0.00 0.00 0.00 85 1016.1
20260831052742 18 155 0.0 0.0 0.00 0.00 0.00 85 1016.0
20260831052241 18 155 0.0 0.0 0.00 0.00 0.00 84 1016.1
20260831051738 18 156 0.0 0.0 0.00 0.00 0.00 85 1016.4
20260831051232 18 162 0.0 0.0 0.00 0.00 0.00 85 1016.2
20260831050727 18 157 0.0 0.0 0.00 0.00 0.00 84 1016.5
20260831050225 18 157 0.0 0.0 0.00 0.00 0.00 83 1016.2
20260831045720 18 160 0.0 0.0 0.00 0.00 0.00 83 1016.4
20260831045215 19 166 0.0 0.0 0.00 0.00 0.00 82 1016.2
20260831044710 19 153 0.0 0.0 0.00 0.00 0.00 82 1016.0
20260831044205 19 159 0.0 0.0 0.00 0.00 0.00 82 1016.2
20260831043701 19 153 0.0 0.0 0.00 0.00 0.00 82 1016.1
20260831043156 19 153 0.0 0.0 0.00 0.00 0.00 81 1016.1
20260831042655 19 164 0.0 0.0 0.00 0.00 0.00 81 1016.1
20260831042150 19 191 0.0 0.0 0.00 0.00 0.00 81 1016.1
20260831041645 19 159 0.0 0.0 0.00 0.00 0.00 80 1016.0
20260831041144 19 155 0.0 0.0 0.00 0.00 0.00 80 1016.1
20260831040640 19 155 0.0 0.0 0.00 0.00 0.00 80 1016.1
20260831040138 20 157 0.0 0.0 0.00 0.00 0.00 79 1016.0
20260831035638 20 171 0.0 0.0 0.00 0.00 0.00 78 1015.9
20260831035137 20 167 0.0 0.0 0.00 0.00 0.00 78 1015.9
20260831034636 20 177 0.0 0.0 0.00 0.00 0.00 78 1015.8
20260831034132 20 153 0.0 0.0 0.00 0.00 0.00 77 1015.6
20260831033628 20 150 0.0 0.0 0.00 0.00 0.00 77 1015.7
20260831033123 20 147 0.0 0.0 0.00 0.00 0.00 76 1015.5
20260831032623 20 162 0.0 0.0 0.00 0.00 0.00 75 1015.5
20260831032118 20 163 0.0 0.0 0.00 0.00 0.00 75 1015.2
20260831031613 21 166 0.0 0.0 0.00 0.00 0.00 75 1015.5
20260831031112 21 156 0.0 0.0 0.00 0.00 0.00 74 1015.0
20260831030611 21 174 0.0 0.0 0.00 0.00 0.00 73 1015.3
20260831030110 21 164 0.0 0.0 0.00 0.00 0.00 72 1015.0
20260831025609 21 157 0.0 0.0 0.00 0.00 0.00 71 1014.9
20260831025104 21 148 0.0 0.0 0.00 0.00 0.00 71 1015.0
20260831024600 21 144 0.0 0.0 0.00 0.00 0.00 70 1015.0
20260831024058 22 152 0.0 3.2 0.00 0.00 0.00 70 1014.9
20260831023557 22 128 0.0 0.0 0.00 0.00 0.00 70 1014.8
20260831023056 22 141 0.0 0.0 0.00 0.00 0.00 69 1014.8
20260831022551 22 134 0.0 0.0 0.00 0.00 0.00 68 1014.9
20260831022046 22 134 0.0 1.6 0.00 0.00 0.00 68 1015.0
20260831021544 22 100 0.0 1.6 0.00 0.00 0.00 68 1014.7
20260831021036 23 151 1.6 3.2 0.00 0.00 0.00 67 1014.7
20260831020531 23 164 0.0 1.6 0.00 0.00 0.00 67 1015.1
20260831020025 23 135 0.0 3.2 0.00 0.00 0.00 67 1015.1
20260831015521 23 148 0.0 1.6 0.00 0.00 0.00 66 1014.9
20260831015016 23 105 1.6 3.2 0.00 0.00 0.00 66 1015.0
20260831014510 23 267 0.0 1.6 0.00 0.00 0.00 65 1014.8
20260831014006 24 143 0.0 0.0 0.00 0.00 0.00 65 1014.9
20260831013502 24 83 1.6 3.2 0.00 0.00 0.00 65 1014.9
20260831012955 25 262 0.0 1.6 0.00 0.00 0.00 64 1014.9
20260831012450 25 135 1.6 1.6 0.00 0.00 0.00 63 1015.1
20260831011944 25 161 0.0 0.0 0.00 0.00 0.00 62 1015.0
20260831011439 25 131 1.6 3.2 0.00 0.00 0.00 62 1015.0
20260831010936 25 156 1.6 3.2 0.00 0.00 0.00 62 1014.9
20260831010435 26 173 1.6 4.8 0.00 0.00 0.00 61 1015.1
20260831005931 26 155 1.6 3.2 0.00 0.00 0.00 62 1015.0
20260831005426 26 158 0.0 4.8 0.00 0.00 0.00 62 1015.1
20260831004926 26 275 6.4 6.4 0.00 0.00 0.00 62 1015.1
20260831004423 26 183 3.2 4.8 0.00 0.00 0.00 62 1014.8
20260831003918 26 342 6.4 6.4 0.00 0.00 0.00 63 1014.8
20260831003413 26 115 1.6 4.8 0.00 0.00 0.00 64 1014.8
20260831002908 26 115 0.0 3.2 0.00 0.00 0.00 64 1015.0
20260831002407 27 197 3.2 6.4 0.00 0.00 0.00 62 1014.8
20260831001902 27 292 0.0 11.3 0.00 0.00 0.00 61 1014.8
20260831001357 27 274 4.8 6.4 0.00 0.00 0.00 60 1014.8
20260831000855 27 168 3.2 9.7 0.00 0.00 0.00 60 1014.7
20260831000350 27 259 3.2 11.3 0.00 0.00 0.00 60 1014.6
20260830235848 27 48 1.6 3.2 0.00 0.00 0.00 60 1014.6
20260830235343 28 201 1.6 4.8 0.00 0.00 0.00 60 1014.9
20260830234839 28 32 1.6 3.2 0.00 0.00 0.00 59 1014.8
20260830234334 28 207 4.8 9.7 0.00 0.00 0.00 59 1014.9
20260830233830 28 128 3.2 6.4 0.00 0.00 0.00 59 1014.6
20260830233325 29 227 1.6 4.8 0.00 0.00 0.00 57 1014.5
20260830232821 29 327 1.6 4.8 0.00 0.00 0.00 57 1015.0
20260830232316 30 63 1.6 3.2 0.00 0.00 0.00 56 1014.7
20260830231812 30 147 1.6 4.8 0.00 0.00 0.00 57 1015.0
20260830231307 30 19 1.6 6.4 0.00 0.00 0.00 57 1014.8
20260830230801 30 149 0.0 3.2 0.00 0.00 0.00 57 1014.8
20260830230257 30 62 3.2 4.8 0.00 0.00 0.00 56 1014.7
20260830225756 30 352 3.2 4.8 0.00 0.00 0.00 56 1014.7
20260830225251 30 158 1.6 4.8 0.00 0.00 0.00 55 1014.9
20260830224750 30 193 1.6 6.4 0.00 0.00 0.00 57 1015.0
20260830224245 30 233 3.2 9.7 0.00 0.00 0.00 56 1014.9
20260830223737 30 214 3.2 6.4 0.00 0.00 0.00 57 1014.9
20260830223232 29 192 1.6 11.3 0.00 0.00 0.00 58 1015.0
20260830222726 29 174 3.2 6.4 0.00 0.00 0.00 58 1015.1
20260830222221 30 62 1.6 6.4 0.00 0.00 0.00 57 1015.1
20260830221711 30 78 3.2 6.4 0.00 0.00 0.00 58 1015.3
20260830221209 30 244 4.8 6.4 0.00 0.00 0.00 56 1015.3
20260830220703 30 206 1.6 3.2 0.00 0.00 0.00 58 1015.2
20260830220202 30 232 4.8 11.3 0.00 0.00 0.00 57 1015.6
20260830215701 30 155 1.6 6.4 0.00 0.00 0.00 58 1015.6
20260830215201 30 155 1.6 3.2 0.00 0.00 0.00 59 1015.6
20260830214656 30 153 1.6 4.8 0.00 0.00 0.00 58 1015.9
20260830214150 30 191 3.2 11.3 0.00 0.00 0.00 57 1015.9
20260830213649 30 279 3.2 6.4 0.00 0.00 0.00 58 1015.6
20260830213145 30 69 1.6 6.4 0.00 0.00 0.00 59 1016.0
20260830212641 30 174 1.6 11.3 0.00 0.00 0.00 59 1016.0
20260830212136 30 196 3.2 11.3 0.00 0.00 0.00 58 1016.2
20260830211631 30 193 1.6 3.2 0.00 0.00 0.00 59 1016.3
20260830211130 30 263 3.2 4.8 0.00 0.00 0.00 57 1016.3
20260830210626 30 229 4.8 9.7 0.00 0.00 0.00 57 1016.2
20260830210125 30 241 3.2 4.8 0.00 0.00 0.00 58 1016.2
20260830205622 30 56 1.6 4.8 0.00 0.00 0.00 60 1016.1
20260830205118 29 153 0.0 3.2 0.00 0.00 0.00 61 1016.3
20260830204618 30 271 4.8 6.4 0.00 0.00 0.00 60 1016.2
20260830204116 30 257 4.8 9.7 0.00 0.00 0.00 59 1016.3
20260830203613 30 173 1.6 9.7 0.00 0.00 0.00 59 1016.4
20260830203113 30 323 3.2 4.8 0.00 0.00 0.00 59 1016.2
20260830202613 30 123 0.0 6.4 0.00 0.00 0.00 60 1016.3
20260830202108 30 130 1.6 3.2 0.00 0.00 0.00 59 1016.2
20260830201608 30 92 0.0 14.5 0.00 0.00 0.00 61 1016.4
20260830201103 30 73 4.8 4.8 0.00 0.00 0.00 60 1016.2
20260830200558 30 134 1.6 9.7 0.00 0.00 0.00 61 1016.3
20260830200057 30 66 3.2 6.4 0.00 0.00 0.00 60 1016.2
20260830195553 29 5 3.2 6.4 0.00 0.00 0.00 61 1016.5
20260830195051 30 187 6.4 11.3 0.00 0.00 0.00 60 1016.5
20260830194550 30 185 3.2 9.7 0.00 0.00 0.00 60 1016.7
20260830194045 30 164 1.6 12.9 0.00 0.00 0.00 59 1016.4
20260830193544 29 229 4.8 9.7 0.00 0.00 0.00 60 1016.6
20260830193040 29 147 4.8 11.3 0.00 0.00 0.00 61 1016.4
20260830192535 30 219 9.7 16.1 0.00 0.00 0.00 60 1016.3
20260830192029 30 201 4.8 11.3 0.00 0.00 0.00 60 1016.6
20260830191525 30 199 1.6 4.8 0.00 0.00 0.00 58 1016.5
20260830191020 29 207 0.0 3.2 0.00 0.00 0.00 60 1016.4
20260830190515 29 102 1.6 4.8 0.00 0.00 0.00 60 1016.6
20260830190010 29 241 3.2 6.4 0.00 0.00 0.00 59 1016.4
20260830185504 30 237 6.4 9.7 0.00 0.00 0.00 58 1016.6
20260830184959 29 158 1.6 6.4 0.00 0.00 0.00 59 1016.6
20260830184453 28 212 4.8 11.3 0.00 0.00 0.00 59 1016.5
20260830183948 28 68 0.0 9.7 0.00 0.00 0.00 60 1016.6
20260830183447 29 223 3.2 11.3 0.00 0.00 0.00 58 1016.8
20260830182943 29 234 4.8 9.7 0.00 0.00 0.00 57 1016.7
20260830182438 29 213 1.6 6.4 0.00 0.00 0.00 59 1016.6
20260830181934 28 351 3.2 11.3 0.00 0.00 0.00 59 1016.4
20260830181425 28 234 4.8 9.7 0.00 0.00 0.00 60 1016.2
20260830180925 28 261 1.6 6.4 0.00 0.00 0.00 61 1016.6
20260830180424 28 203 3.2 6.4 0.00 0.00 0.00 61 1016.6
20260830175923 28 227 4.8 9.7 0.00 0.00 0.00 60 1016.5
20260830175423 27 136 0.0 4.8 0.00 0.00 0.00 63 1016.4
20260830174918 27 139 1.6 6.4 0.00 0.00 0.00 61 1016.5
20260830174413 28 251 4.8 9.7 0.00 0.00 0.00 61 1016.4
20260830173909 28 203 3.2 4.8 0.00 0.00 0.00 61 1016.7
20260830173404 28 59 1.6 4.8 0.00 0.00 0.00 61 1016.6
20260830172900 28 83 1.6 3.2 0.00 0.00 0.00 61 1016.5
20260830172356 28 83 1.6 4.8 0.00 0.00 0.00 61 1016.5
20260830171851 28 253 4.8 4.8 0.00 0.00 0.00 60 1016.4
20260830171347 28 97 1.6 1.6 0.00 0.00 0.00 60 1016.5
20260830170842 28 119 1.6 4.8 0.00 0.00 0.00 60 1016.4
20260830170341 28 153 1.6 1.6 0.00 0.00 0.00 59 1016.4
20260830165840 27 120 0.0 0.0 0.00 0.00 0.00 63 1016.2
20260830165336 27 76 3.2 4.8 0.00 0.00 0.00 62 1016.2
20260830164832 27 116 0.0 3.2 0.00 0.00 0.00 63 1016.2
20260830164328 27 129 0.0 3.2 0.00 0.00 0.00 63 1016.2
20260830163825 27 114 1.6 6.4 0.00 0.00 0.00 63 1016.4
20260830163320 27 125 3.2 3.2 0.00 0.00 0.00 62 1016.4
20260830162814 26 172 1.6 3.2 0.00 0.00 0.00 64 1016.4
20260830162311 26 120 0.0 3.2 0.00 0.00 0.00 66 1016.5
20260830161811 26 104 1.6 3.2 0.00 0.00 0.00 66 1016.6
20260830161310 26 118 1.6 3.2 0.00 0.00 0.00 66 1016.7
20260830160806 25 148 1.6 1.6 0.00 0.00 0.00 67 1016.4
20260830160306 25 125 0.0 1.6 0.00 0.00 0.00 69 1016.5
20260830155802 25 125 0.0 1.6 0.00 0.00 0.00 70 1016.3
20260830155259 25 126 0.0 1.6 0.00 0.00 0.00 70 1016.4
20260830154759 25 99 3.2 6.4 0.00 0.00 0.00 69 1016.5
20260830154254 26 130 1.6 3.2 0.00 0.00 0.00 66 1016.2
20260830153751 26 130 0.0 1.6 0.00 0.00 0.00 67 1016.6
20260830153247 25 126 0.0 3.2 0.00 0.00 0.00 70 1016.2
20260830152745 25 134 0.0 0.0 0.00 0.00 0.00 73 1016.4
20260830152240 24 130 0.0 0.0 0.00 0.00 0.00 75 1016.4
20260830151739 23 110 1.6 3.2 0.00 0.00 0.00 76 1016.3
20260830151239 24 120 0.0 1.6 0.00 0.00 0.00 76 1016.4
20260830150734 23 94 1.6 1.6 0.00 0.00 0.00 76 1016.2
20260830150233 23 124 0.0 0.0 0.00 0.00 0.00 78 1016.3
20260830145728 23 91 1.6 1.6 0.00 0.00 0.00 79 1016.3
20260830145223 22 141 0.0 1.6 0.00 0.00 0.00 79 1016.3
20260830144723 22 133 0.0 0.0 0.00 0.00 0.00 82 1016.3
20260830144220 21 123 0.0 0.0 0.00 0.00 0.00 84 1016.4
20260830143716 21 116 1.6 1.6 0.00 0.00 0.00 84 1016.4
20260830143213 20 132 0.0 0.0 0.00 0.00 0.00 86 1016.5
20260830142709 20 121 0.0 0.0 0.00 0.00 0.00 89 1016.5
20260830142204 19 143 0.0 0.0 0.00 0.00 0.00 92 1016.4
20260830141659 18 158 0.0 0.0 0.00 0.00 0.00 94 1016.4
20260830141154 18 158 0.0 0.0 0.00 0.00 0.00 95 1016.4
20260830140649 18 165 0.0 0.0 0.00 0.00 0.00 95 1016.3
20260830140144 17 166 0.0 0.0 0.00 0.00 0.00 96 1016.3
20260830135634 17 167 0.0 0.0 0.00 0.00 0.00 96 1016.1
20260830135128 17 167 0.0 0.0 0.00 0.00 0.00 96 1016.1
20260830134624 17 167 0.0 0.0 0.00 0.00 0.00 96 1016.1
20260830134119 17 169 0.0 0.0 0.00 0.00 0.00 96 1015.9
20260830133614 17 178 0.0 0.0 0.00 0.00 0.00 96 1016.0
20260830133110 17 156 0.0 0.0 0.00 0.00 0.00 96 1015.7
20260830132606 17 155 0.0 0.0 0.00 0.00 0.00 96 1015.6
20260830132101 17 155 0.0 0.0 0.00 0.00 0.00 96 1015.7
20260830131600 17 154 0.0 0.0 0.00 0.00 0.00 96 1015.5
20260830131055 17 154 0.0 0.0 0.00 0.00 0.00 96 1015.6
20260830130549 17 155 0.0 0.0 0.00 0.00 0.00 95 1015.5
20260830130045 17 164 0.0 0.0 0.00 0.00 0.00 95 1015.7
20260830125540 17 165 0.0 0.0 0.00 0.00 0.00 95 1015.7
20260830125039 17 170 0.0 0.0 0.00 0.00 0.00 95 1015.6
20260830124538 17 155 0.0 0.0 0.00 0.00 0.00 95 1015.6
20260830124034 17 205 0.0 0.0 0.00 0.00 0.00 95 1015.7
20260830123531 17 171 0.0 0.0 0.00 0.00 0.00 95 1015.7
20260830123026 17 174 0.0 0.0 0.00 0.00 0.00 95 1015.5
20260830122522 17 207 0.0 0.0 0.00 0.00 0.00 95 1015.5
20260830122018 17 257 0.0 0.0 0.00 0.00 0.00 95 1015.2
20260830121513 17 177 0.0 0.0 0.00 0.00 0.00 95 1015.2
20260830121007 17 162 0.0 0.0 0.00 0.00 0.00 94 1015.2
20260830120503 17 163 0.0 0.0 0.00 0.00 0.00 94 1015.3
20260830115959 17 163 0.0 0.0 0.00 0.00 0.00 94 1015.2
20260830115455 17 163 0.0 0.0 0.00 0.00 0.00 94 1015.2
20260830114950 17 172 0.0 0.0 0.00 0.00 0.00 94 1015.5
20260830114446 17 159 0.0 0.0 0.00 0.00 0.00 93 1015.6
20260830113940 17 159 0.0 0.0 0.00 0.00 0.00 93 1015.3
20260830113435 18 166 0.0 0.0 0.00 0.00 0.00 94 1015.3
20260830112931 18 175 0.0 0.0 0.00 0.00 0.00 94 1015.3
20260830112427 18 170 0.0 0.0 0.00 0.00 0.00 93 1015.3
20260830111923 18 173 0.0 0.0 0.00 0.00 0.00 94 1015.1
20260830111418 18 161 0.0 0.0 0.00 0.00 0.00 93 1015.1
20260830110913 18 160 0.0 0.0 0.00 0.00 0.00 93 1015.1
20260830110409 18 190 0.0 0.0 0.00 0.00 0.00 93 1014.9
20260830105908 18 160 0.0 0.0 0.00 0.00 0.00 92 1015.1
20260830105405 18 146 0.0 1.6 0.00 0.00 0.00 92 1015.1
20260830104901 18 180 0.0 0.0 0.00 0.00 0.00 92 1015.0
20260830104357 18 194 0.0 1.6 0.00 0.00 0.00 92 1015.1
20260830103856 18 218 0.0 0.0 0.00 0.00 0.00 93 1015.1
20260830103353 18 167 0.0 0.0 0.00 0.00 0.00 93 1015.1
20260830102850 18 167 0.0 0.0 0.00 0.00 0.00 92 1014.9
20260830102346 18 167 0.0 0.0 0.00 0.00 0.00 92 1015.0
20260830101843 18 167 0.0 0.0 0.00 0.00 0.00 92 1015.0
20260830101337 18 167 0.0 0.0 0.00 0.00 0.00 92 1015.3
20260830100836 18 167 0.0 0.0 0.00 0.00 0.00 92 1015.0
20260830100330 18 167 0.0 0.0 0.00 0.00 0.00 91 1015.0
20260830095824 18 167 0.0 0.0 0.00 0.00 0.00 91 1015.1
20260830095320 18 167 0.0 0.0 0.00 0.00 0.00 91 1015.2
20260830094816 18 167 0.0 0.0 0.00 0.00 0.00 91 1015.1
20260830094312 18 167 0.0 0.0 0.00 0.00 0.00 90 1015.0
20260830093807 18 167 0.0 0.0 0.00 0.00 0.00 91 1014.8
20260830093303 18 167 0.0 0.0 0.00 0.00 0.00 90 1014.9
20260830092803 18 167 0.0 0.0 0.00 0.00 0.00 90 1015.1
20260830092259 18 167 0.0 0.0 0.00 0.00 0.00 90 1015.1
20260830091755 18 167 0.0 0.0 0.00 0.00 0.00 90 1015.2
20260830091255 19 168 0.0 0.0 0.00 0.00 0.00 90 1015.2
20260830090754 19 167 0.0 0.0 0.00 0.00 0.00 90 1014.9
20260830090249 19 185 0.0 0.0 0.00 0.00 0.00 90 1015.0
20260830085749 19 170 0.0 0.0 0.00 0.00 0.00 88 1014.9
20260830085244 19 159 0.0 0.0 0.00 0.00 0.00 88 1015.2
20260830084740 19 162 0.0 0.0 0.00 0.00 0.00 89 1015.2
20260830084235 19 162 0.0 1.6 0.00 0.00 0.00 89 1015.2
20260830083730 19 199 1.6 1.6 0.00 0.00 0.00 89 1015.1
20260830083226 19 177 0.0 0.0 0.00 0.00 0.00 89 1015.0
20260830082725 19 174 0.0 0.0 0.00 0.00 0.00 88 1014.9
20260830082221 19 154 0.0 0.0 0.00 0.00 0.00 87 1015.2
20260830081716 20 160 0.0 0.0 0.00 0.00 0.00 86 1015.3
20260830081216 20 161 0.0 0.0 0.00 0.00 0.00 86 1015.2
20260830080710 20 162 0.0 0.0 0.00 0.00 0.00 86 1014.8
20260830080206 20 160 0.0 0.0 0.00 0.00 0.00 85 1015.1
20260830075659 20 176 1.6 1.6 0.00 0.00 0.00 86 1015.1
20260830075155 20 162 0.0 0.0 0.00 0.00 0.00 86 1015.2
20260830074650 20 163 0.0 0.0 0.00 0.00 0.00 85 1014.9
20260830074146 20 158 0.0 0.0 0.00 0.00 0.00 84 1015.1
20260830073642 20 157 0.0 0.0 0.00 0.00 0.00 84 1015.2
20260830073137 20 162 0.0 0.0 0.00 0.00 0.00 84 1015.3
20260830072632 20 159 0.0 1.6 0.00 0.00 0.00 84 1015.1
20260830072127 20 216 1.6 3.2 0.00 0.00 0.00 84 1015.0
20260830071622 20 179 0.0 0.0 0.00 0.00 0.00 85 1015.2
20260830071114 20 160 0.0 0.0 0.00 0.00 0.00 85 1015.0
20260830070610 20 180 0.0 0.0 0.00 0.00 0.00 84 1015.1
20260830070104 20 167 0.0 0.0 0.00 0.00 0.00 84 1015.2
20260830065603 20 183 0.0 0.0 0.00 0.00 0.00 84 1015.0
20260830065102 20 156 0.0 0.0 0.00 0.00 0.00 84 1015.1
20260830064556 20 151 0.0 0.0 0.00 0.00 0.00 84 1014.6